Previsão horária em Julkow

Hoje, 23 Junho, Quarta-feira

Tempo Temperatura Precipitação Vento Pressão Humidade
00:00 +21°C° 0 mm 3 m/s 747 mmHg 89%
01:00 +20°C° 0 mm 3 m/s 747 mmHg 90%
02:00 +20°C° 0 mm 2 m/s 747 mmHg 90%
03:00 +20°C° 0 mm 2 m/s 747 mmHg 89%
04:00 +20°C° 0 mm 2 m/s 747 mmHg 89%
05:00 +21°C° 0 mm 2 m/s 747 mmHg 88%
06:00 +23°C° 0 mm 1 m/s 747 mmHg 84%
07:00 +25°C° 0 mm 1 m/s 747 mmHg 79%
08:00 +26°C° 0 mm 1 m/s 748 mmHg 75%
09:00 +28°C° 0 mm 1 m/s 748 mmHg 70%
10:00 +29°C° 0 mm 1 m/s 748 mmHg 65%
11:00 +30°C° 0 mm 2 m/s 749 mmHg 59%
12:00 +31°C° 0 mm 2 m/s 749 mmHg 56%
13:00 +32°C° 0 mm 2 m/s 748 mmHg 53%
14:00 +34°C° 0 mm 2 m/s 748 mmHg 50%
15:00 +34°C° 0 mm 2 m/s 748 mmHg 50%
16:00 +34°C° 0 mm 2 m/s 748 mmHg 50%
17:00 +33°C° 0 mm 1 m/s 748 mmHg 50%
18:00 +31°C° 0 mm 2 m/s 748 mmHg 58%
19:00 +29°C° 0 mm 2 m/s 748 mmHg 67%
20:00 +28°C° 0 mm 2 m/s 748 mmHg 75%
21:00 +27°C° 0.2 mm 2 m/s 749 mmHg 78%
22:00 +26°C° 0.2 mm 2 m/s 749 mmHg 81%
23:00 +25°C° 0.2 mm 1 m/s 749 mmHg 84%

Amanhã, 24 Junho, Quinta-feira

Tempo Temperatura Precipitação Vento Pressão Humidade
00:00 +24°C° 0.1 mm 1 m/s 749 mmHg 86%
01:00 +24°C° 0.1 mm 1 m/s 749 mmHg 88%
02:00 +23°C° 0.1 mm 1 m/s 749 mmHg 90%
03:00 +23°C° 0.5 mm 1 m/s 749 mmHg 91%
04:00 +23°C° 0.5 mm 1 m/s 749 mmHg 91%
05:00 +23°C° 0.5 mm 1 m/s 749 mmHg 91%
06:00 +24°C° 0 mm 1 m/s 749 mmHg 87%
07:00 +26°C° 0 mm 1 m/s 749 mmHg 82%
08:00 +27°C° 0 mm 1 m/s 749 mmHg 77%
09:00 +29°C° 0.1 mm 1 m/s 749 mmHg 72%
10:00 +30°C° 0.1 mm 2 m/s 749 mmHg 66%
11:00 +31°C° 0.1 mm 2 m/s 749 mmHg 60%
12:00 +32°C° 0 mm 2 m/s 749 mmHg 56%
13:00 +34°C° 0 mm 2 m/s 748 mmHg 51%
14:00 +35°C° 0 mm 2 m/s 748 mmHg 47%
15:00 +35°C° 0 mm 3 m/s 748 mmHg 49%
16:00 +34°C° 0 mm 3 m/s 747 mmHg 50%
17:00 +34°C° 0 mm 4 m/s 746 mmHg 52%
18:00 +31°C° 0.6 mm 3 m/s 746 mmHg 62%
19:00 +28°C° 0.6 mm 3 m/s 746 mmHg 71%
20:00 +26°C° 0.6 mm 3 m/s 746 mmHg 81%
21:00 +24°C° 3.2 mm 2 m/s 746 mmHg 85%
22:00 +23°C° 3.2 mm 2 m/s 747 mmHg 90%
23:00 +20°C° 3.2 mm 2 m/s 747 mmHg 94%

Depois de amanhã, 25 Junho, Sexta-feira

Tempo Temperatura Precipitação Vento Pressão Humidade
00:00 +20°C° 0.2 mm 2 m/s 747 mmHg 94%
01:00 +20°C° 0.2 mm 3 m/s 746 mmHg 94%
02:00 +20°C° 0.2 mm 3 m/s 746 mmHg 93%
03:00 +20°C° 0 mm 2 m/s 746 mmHg 93%
04:00 +20°C° 0 mm 2 m/s 746 mmHg 93%
05:00 +20°C° 0 mm 1 m/s 746 mmHg 93%
06:00 +21°C° 0 mm 1 m/s 746 mmHg 88%
07:00 +22°C° 0 mm 1 m/s 746 mmHg 83%
08:00 +23°C° 0 mm 1 m/s 746 mmHg 78%
09:00 +25°C° 0 mm 1 m/s 746 mmHg 73%
10:00 +26°C° 0 mm 1 m/s 746 mmHg 67%
11:00 +28°C° 0 mm 1 m/s 746 mmHg 62%
12:00 +28°C° 0 mm 2 m/s 746 mmHg 60%
13:00 +29°C° 0 mm 2 m/s 746 mmHg 59%
14:00 +30°C° 0 mm 3 m/s 746 mmHg 58%
15:00 +29°C° 0 mm 3 m/s 746 mmHg 63%
16:00 +27°C° 0 mm 4 m/s 746 mmHg 68%
17:00 +26°C° 0 mm 5 m/s 746 mmHg 73%
18:00 +25°C° 0 mm 4 m/s 746 mmHg 76%
19:00 +23°C° 0 mm 4 m/s 746 mmHg 79%
20:00 +22°C° 0 mm 3 m/s 746 mmHg 82%
21:00 +21°C° 0 mm 3 m/s 747 mmHg 84%
22:00 +20°C° 0 mm 3 m/s 747 mmHg 86%
23:00 +19°C° 0 mm 3 m/s 748 mmHg 89%

26 Junho, Sábado

Tempo Temperatura Precipitação Vento Pressão Humidade
00:00 +18°C° 0 mm 3 m/s 747 mmHg 88%
01:00 +17°C° 0 mm 3 m/s 747 mmHg 88%
02:00 +17°C° 0 mm 3 m/s 747 mmHg 88%
03:00 +17°C° 0 mm 3 m/s 747 mmHg 89%
04:00 +16°C° 0 mm 3 m/s 748 mmHg 90%
05:00 +16°C° 0 mm 3 m/s 748 mmHg 91%
06:00 +18°C° 0 mm 3 m/s 748 mmHg 87%
07:00 +19°C° 0 mm 4 m/s 748 mmHg 82%
08:00 +20°C° 0 mm 4 m/s 749 mmHg 78%
09:00 +21°C° 0.1 mm 4 m/s 749 mmHg 74%
10:00 +22°C° 0.1 mm 4 m/s 749 mmHg 70%
11:00 +22°C° 0.1 mm 4 m/s 750 mmHg 66%
12:00 +23°C° 0.1 mm 4 m/s 749 mmHg 62%
13:00 +25°C° 0.1 mm 4 m/s 749 mmHg 59%
14:00 +25°C° 0.1 mm 3 m/s 749 mmHg 55%
15:00 +25°C° 0 mm 3 m/s 749 mmHg 56%
16:00 +25°C° 0 mm 3 m/s 749 mmHg 57%
17:00 +25°C° 0 mm 3 m/s 749 mmHg 59%
18:00 +24°C° 0 mm 3 m/s 749 mmHg 63%
19:00 +22°C° 0 mm 3 m/s 749 mmHg 68%
20:00 +21°C° 0 mm 2 m/s 749 mmHg 73%
21:00 +20°C° 0 mm 2 m/s 749 mmHg 75%
22:00 +18°C° 0 mm 2 m/s 750 mmHg 77%
23:00 +17°C° 0 mm 2 m/s 750 mmHg 79%

27 Junho, Domingo

Tempo Temperatura Precipitação Vento Pressão Humidade
00:00 +17°C° 0 mm 2 m/s 750 mmHg 80%
01:00 +16°C° 0 mm 2 m/s 750 mmHg 81%
02:00 +16°C° 0 mm 2 m/s 751 mmHg 83%
03:00 +15°C° 0 mm 1 m/s 751 mmHg 83%
04:00 +15°C° 0 mm 1 m/s 751 mmHg 84%
05:00 +15°C° 0 mm 1 m/s 751 mmHg 85%
06:00 +18°C° 0 mm 1 m/s 751 mmHg 79%
07:00 +19°C° 0 mm 2 m/s 751 mmHg 73%
08:00 +20°C° 0 mm 2 m/s 751 mmHg 67%
09:00 +23°C° 0 mm 2 m/s 751 mmHg 62%
10:00 +24°C° 0 mm 2 m/s 751 mmHg 58%
11:00 +25°C° 0 mm 2 m/s 751 mmHg 53%
12:00 +26°C° 0 mm 2 m/s 751 mmHg 50%
13:00 +26°C° 0 mm 2 m/s 751 mmHg 48%
14:00 +27°C° 0 mm 2 m/s 751 mmHg 45%
15:00 +27°C° 0 mm 2 m/s 751 mmHg 47%
16:00 +26°C° 0 mm 2 m/s 751 mmHg 48%
17:00 +26°C° 0 mm 2 m/s 750 mmHg 50%
18:00 +25°C° 0 mm 2 m/s 750 mmHg 55%
19:00 +24°C° 0 mm 2 m/s 750 mmHg 61%
20:00 +23°C° 0 mm 1 m/s 750 mmHg 67%
21:00 +22°C° 0 mm 1 m/s 751 mmHg 68%
22:00 +21°C° 0 mm 1 m/s 751 mmHg 69%
23:00 +20°C° 0 mm 1 m/s 751 mmHg 69%

28 Junho, Segunda-feira

Tempo Temperatura Precipitação Vento Pressão Humidade
00:00 +19°C° 0 mm 1 m/s 751 mmHg 70%
01:00 +19°C° 0 mm 1 m/s 751 mmHg 71%
02:00 +17°C° 0 mm 0 m/s 751 mmHg 71%
03:00 +16°C° 0 mm 0 m/s 751 mmHg 73%
04:00 +16°C° 0 mm 0 m/s 751 mmHg 75%
05:00 +16°C° 0 mm 0 m/s 751 mmHg 77%
06:00 +17°C° 0 mm 0 m/s 751 mmHg 72%
07:00 +19°C° 0 mm 0 m/s 751 mmHg 67%
08:00 +23°C° 0 mm 1 m/s 752 mmHg 63%
09:00 +24°C° 0 mm 1 m/s 752 mmHg 58%
10:00 +25°C° 0 mm 1 m/s 752 mmHg 54%
11:00 +27°C° 0 mm 2 m/s 752 mmHg 49%
12:00 +27°C° 0 mm 2 m/s 752 mmHg 47%
13:00 +28°C° 0 mm 1 m/s 751 mmHg 45%
14:00 +28°C° 0 mm 1 m/s 751 mmHg 43%
15:00 +28°C° 0 mm 1 m/s 751 mmHg 43%
16:00 +28°C° 0 mm 1 m/s 751 mmHg 44%
17:00 +29°C° 0 mm 1 m/s 751 mmHg 44%
18:00 +27°C° 0 mm 1 m/s 750 mmHg 50%
19:00 +26°C° 0 mm 1 m/s 750 mmHg 56%
20:00 +24°C° 0 mm 1 m/s 750 mmHg 62%
21:00 +23°C° 0 mm 1 m/s 750 mmHg 64%
22:00 +22°C° 0 mm 1 m/s 750 mmHg 65%
23:00 +21°C° 0 mm 1 m/s 750 mmHg 67%
Mostrar mais

Necessitamos do seu Consentimento

A Meteoprog e os seus Fornecedores de Serviços podem armazenar e aceder a dados pessoais como cookies, identificadores do dispositivo ou outras tecnologias semelhantes existentes no seu dispositivo e processar estes dados para personalizar conteúdos e anúncios, assim como funcionalidades nas redes sociais e análise de tráfego.

  • Armazenar e/ou aceder a informações no seu dispositivo

    Os cookies, identificadores do dispositivo ou outras informações podem ser armazenados ou acedidos no seu dispositivo, para os fins acima indicados.

  • Anúncios e conteúdos personalizados, medição de anúncios e conteúdos, dados sobre o público-alvo e desenvolvimento de produtos

    Os anúncios e os conteúdos podem ser personalizados com base num perfil. Podem ser adicionados dados adicionais para uma maior personalização dos anúncios e dos conteúdos. A eficácia dos anúncios e dos conteúdos pode ser medida. Podem ser obtidas informações sobre o público que visualizou os anúncios e os conteúdos. Estes dados podem ser usados para desenvolver ou melhorar sistemas, softwares ou a experiência do utilizador.

Ao clicar em "Eu concordo”, permitirá o uso de cookies, identificadores do dispositivo e web beacons mencionados ou outras tecnologias semelhantes. As configurações do navegador do seu dispositivo podem ser alteradas.

Para certos fins, podem ser invocados interesses legítimos ao invés de consentimento. Pode ler mais informação sobre este assunto na nossa Política de Privacidade e Cookies.